[[{"header":{"parameterUnit":"m.s-1","parameterCategory":1,"la1":30.2991,"la2":30.254,"lo1":-89.0895,"lo2":-89.0444,"dy":0.0017,"dx":0.0017,"nx":28,"ny":28,"refTime":"2024-06-24T09:00:00:Z","depth":0,"parameterNumber":2,"parameterNumberName":"U-component_of_WINDS"},"data":[0,0,0,0,0,0,0,0,0,0,0,0,0,0,0,0,0,0,0,0,0,0,0,0,0,0,0,0,0,0,0,0,0,0,0,0,0,0,0,0,0,0,0,0,0,0,0,0,0,0,0,0,0,0,0,0,0,0,3.7453,3.7455,0,3.7618,3.762,3.7622,3.7578,3.7575,3.7571,3.7568,3.7742,3.7749,3.7757,0,0,0,0,0,0,0,0,0,0,0,0,0,3.7103,3.711,3.7453,3.7455,3.7457,3.7618,3.762,3.7623,3.7579,3.7575,3.7571,3.7567,3.7739,3.7748,3.7758,0,0,0,0,0,0,0,0,0,0,0,0,0,3.726,3.7112,3.7453,3.7455,3.7456,3.7618,3.762,3.7623,3.7579,3.7574,3.757,3.7565,3.7736,3.7747,3.7759,3.793,0,0,3.7794,3.7799,0,0,0,0,0,0,0,0,3.7251,3.7273,3.7452,3.7455,3.7457,3.7572,3.756,3.7726,3.7581,3.7533,3.7568,3.7562,3.769,3.7705,3.7747,3.7938,3.7945,3.7795,3.7802,3.7807,3.781,0,0,0,0,0,0,0,3.7241,3.7266,3.7519,3.7455,3.7458,3.7448,3.7465,3.7592,3.7637,3.7537,3.7534,3.7554,3.769,3.7736,3.7751,3.7948,3.7795,3.7805,3.7812,3.7817,3.8286,3.8292,0,0,0,0,0,0,3.7227,3.7257,3.7513,3.7523,3.734,3.7459,3.7477,3.754,3.7636,3.7645,3.7558,3.7551,3.7718,3.7737,3.7756,3.7962,3.7807,3.7818,3.7825,3.8281,3.8288,3.8294,0,0,0,0,0,0,3.722,3.7251,3.7507,3.739,3.7421,3.747,3.7541,3.7546,3.7592,3.7652,3.766,3.7596,3.7715,3.774,3.7886,3.7967,3.7823,3.7834,3.8274,3.8283,3.8291,3.8374,0,0,0,0,0,0,3.721,3.7248,3.7313,3.7391,3.7428,3.7633,3.7546,3.7553,3.7611,3.7604,3.769,3.7699,3.7713,3.7869,3.7898,3.798,3.7843,3.8267,3.8278,3.8288,3.8364,3.8384,3.8401,0,0,0,0,0,3.7198,3.7331,3.7316,3.7347,3.7509,3.7638,3.7659,3.7671,3.7618,3.7684,3.7722,3.7696,3.7954,3.7885,3.7916,3.8004,3.8262,3.8275,3.8287,3.8356,3.838,3.8401,0,0,0,0,0,0,3.7262,3.7341,3.7326,3.7488,3.7556,3.763,3.7713,3.7697,3.7782,3.7772,3.7785,3.7805,3.7954,3.7994,3.7915,3.8174,3.81,3.812,3.8142,3.8166,3.8184,3.8171,3.7852,0,0,0,0,0,3.7295,3.7391,3.7456,3.7593,3.7628,3.7665,3.7721,3.7725,3.7796,3.7825,3.7874,3.7946,3.8043,3.8107,3.8199,3.837,3.8388,3.8446,3.8464,3.8479,3.8496,3.8588,3.8615,3.8334,3.8334,3.8334,0,0,3.7364,3.742,3.748,3.7607,3.766,3.7761,3.7689,3.7799,3.7873,3.7843,3.7983,3.8021,3.8102,3.8261,3.8334,3.8299,3.8577,3.8495,3.8507,3.8515,3.8604,3.863,3.8654,3.8343,3.8341,3.834,0,0,3.7542,3.7593,3.7712,3.7767,3.7848,3.7871,3.79,3.7976,3.8,3.8141,3.8119,3.8209,3.8376,3.8434,3.8486,3.8685,3.8664,3.8715,3.8811,3.8901,3.8923,3.8943,3.9013,3.9038,3.8731,3.8731,3.8732,0,3.7618,3.7767,3.7776,3.7887,3.7944,3.7919,3.804,3.8093,3.8201,3.8241,3.82,3.8408,3.8461,3.8633,3.8681,3.8724,3.8757,3.8705,3.8919,3.8939,3.8957,3.9024,3.9051,3.8737,3.8736,3.8736,3.8735,0,3.7856,3.796,3.8047,3.8149,3.8216,3.8332,3.8359,3.8426,3.8424,3.8452,3.8596,3.8658,3.8762,3.8804,3.8804,3.8976,3.8951,3.8915,3.8842,3.8989,3.9052,3.9078,3.8745,3.8743,3.8741,3.874,0,0,3.8078,3.8184,3.8215,3.8261,3.8349,3.8429,3.8544,3.8645,3.8701,3.8777,3.8873,3.9015,3.8981,3.904,3.9046,3.9125,3.9278,3.9079,3.9081,3.9113,3.9471,3.9497,3.9526,3.9265,3.927,3.9274,3.9463,0,3.8262,3.8462,3.8474,3.8656,3.8751,3.8729,3.8829,3.8894,3.8924,3.901,3.9044,3.9143,3.9092,3.9127,3.9204,3.9243,3.935,3.9229,3.9355,3.9359,3.9334,3.9559,3.9588,3.9763,3.9488,3.9492,3.9495,0,3.8503,3.8584,3.8774,3.8847,3.8888,3.8977,3.907,3.9153,3.9226,3.9242,3.9307,3.9302,3.9421,3.9344,3.9507,3.9425,3.9478,3.9505,3.9512,3.9523,3.9436,3.9576,3.982,3.9846,3.9535,3.9532,3.9529,0,3.8644,3.8801,3.8935,3.8975,3.9064,3.9127,3.9167,3.9236,3.9295,3.9377,3.9416,3.9511,3.9563,3.9637,3.9658,3.96,3.9821,3.9746,3.9838,3.9838,3.9885,3.9882,4.014,3.9921,3.992,3.992,3.9919,0,3.8848,3.8965,3.8999,3.9082,3.9213,3.9226,3.9356,3.9392,3.9453,3.9543,3.9531,3.9615,3.9639,3.9728,3.9746,3.9878,3.9902,3.9919,3.9922,3.9919,3.9917,3.9953,3.9941,3.9927,3.9925,3.9924,3.9923,0,3.9027,3.9055,3.92,3.9271,3.9292,3.9386,3.9447,3.9527,3.9555,3.9668,3.9696,3.974,3.9845,3.9873,3.9999,4.0011,4.0166,4.0159,4.0141,4.014,4.023,4.0221,4.052,4.0559,4.0315,4.0318,4.032,0,3.9155,3.9244,3.9325,3.9383,3.9426,3.952,3.958,3.9597,3.966,3.975,3.982,3.9922,4.0005,4.0173,4.0217,4.0313,4.0307,4.0405,4.0322,4.0316,4.0307,4.0301,4.031,4.0421,4.0423,4.0426,4.0427,0,3.9377,3.9386,3.9473,3.9564,3.9636,3.9709,3.9779,3.9828,3.9855,3.9927,4.0033,4.0097,4.0224,4.0326,4.0423,4.0466,4.0452,4.0453,4.0479,4.0477,4.0463,4.0471,4.0183,4.0446,4.0444,4.0443,4.0442,4.0441,3.9534,3.9612,3.9681,3.9777,3.9832,3.9897,3.9975,4.0012,4.01,4.0204,4.0209,4.0324,4.0395,4.0523,4.0571,4.0662,4.0633,4.0671,4.0681,4.069,4.0697,4.0449,4.068,4.068,4.0679,4.0679,4.0678,0,3.9755,3.9798,3.9886,3.9984,4.006,4.0039,4.0115,4.0181,4.0281,4.0348,4.0429,4.0551,4.065,4.0701,4.08,4.0863,4.0858,4.0888,4.0883,4.0893,4.0718,4.0684,4.0889,4.0889,4.0889,4.0889,4.0889,4.0889,3.9879,4.0009,4.0027,4.0184,4.0227,4.0337,4.0383,4.0444,4.0497,4.0633,4.0714,4.0746,4.0808,4.091,4.1,4.1013,4.1049,4.1082,4.1092,4.0927,4.0905,4.0885,4.0853,4.109,4.1091,4.1259,4.126,4.1262]},{"header":{"parameterUnit":"m.s-1","parameterCategory":1,"la1":30.2991,"la2":30.254,"lo1":-89.0895,"lo2":-89.0444,"dy":0.0017,"dx":0.0017,"nx":28,"ny":28,"refTime":"2024-06-24T09:00:00:Z","depth":0,"parameterNumber":3,"parameterNumberName":"V-component_of_WINDS"},"data":[0,0,0,0,0,0,0,0,0,0,0,0,0,0,0,0,0,0,0,0,0,0,0,0,0,0,0,0,0,0,0,0,0,0,0,0,0,0,0,0,0,0,0,0,0,0,0,0,0,0,0,0,0,0,0,0,0,0,3.7161,3.7162,0,3.7308,3.7309,3.7311,3.7298,3.7296,3.7293,3.7291,3.7439,3.7445,3.7451,0,0,0,0,0,0,0,0,0,0,0,0,0,3.6866,3.6872,3.7161,3.7162,3.7164,3.7307,3.7309,3.7311,3.7298,3.7295,3.7293,3.729,3.7437,3.7444,3.7452,0,0,0,0,0,0,0,0,0,0,0,0,0,3.7002,3.6874,3.716,3.7175,3.7178,3.7307,3.7309,3.7312,3.7299,3.7295,3.7292,3.7289,3.7435,3.7444,3.7453,3.7576,0,0,3.748,3.7484,0,0,0,0,0,0,0,0,3.6994,3.7013,3.7171,3.7174,3.7178,3.7281,3.726,3.74,3.73,3.7253,3.7291,3.7287,3.7389,3.7402,3.7437,3.7583,3.7589,3.7481,3.7487,3.749,3.7493,0,0,0,0,0,0,0,3.6985,3.7006,3.7219,3.7173,3.7177,3.7173,3.7189,3.7286,3.7338,3.7257,3.7256,3.7274,3.739,3.7428,3.744,3.7591,3.7481,3.7489,3.7494,3.7498,3.7845,3.7849,0,0,0,0,0,0,3.6972,3.6998,3.7214,3.7223,3.7076,3.7182,3.7199,3.7251,3.7337,3.7347,3.7276,3.7273,3.7414,3.7429,3.7445,3.7595,3.749,3.7499,3.7504,3.7841,3.7846,3.785,0,0,0,0,0,0,3.6966,3.6992,3.7208,3.7111,3.7138,3.719,3.7249,3.7256,3.7293,3.7352,3.7361,3.7306,3.7412,3.7432,3.7543,3.76,3.7503,3.7511,3.7837,3.7843,3.7848,3.7895,0,0,0,0,0,0,3.6958,3.6989,3.7037,3.7112,3.7143,3.7305,3.7252,3.7261,3.7309,3.7306,3.7382,3.7391,3.7411,3.753,3.7552,3.761,3.7518,3.7832,3.7839,3.7846,3.7889,3.7902,3.7913,0,0,0,0,0,3.6947,3.7044,3.704,3.7066,3.7204,3.7308,3.7326,3.7348,3.7314,3.7362,3.74,3.7388,3.759,3.7541,3.7567,3.7628,3.7829,3.7837,3.7846,3.7883,3.7899,3.7913,0,0,0,0,0,0,3.6975,3.7054,3.705,3.7175,3.7235,3.7306,3.7367,3.7364,3.7434,3.7428,3.7451,3.7468,3.758,3.7615,3.756,3.7752,3.7705,3.7718,3.7725,3.774,3.7752,3.7741,3.7526,0,0,0,0,0,3.6995,3.7074,3.7139,3.7242,3.7273,3.7315,3.7361,3.7373,3.7435,3.746,3.7506,3.7567,3.7644,3.7694,3.7768,3.7894,3.791,3.7948,3.796,3.797,3.7982,3.805,3.8068,3.7878,3.7878,3.7878,0,0,3.7038,3.7092,3.714,3.7249,3.7297,3.7377,3.7336,3.7423,3.7482,3.7473,3.7581,3.7617,3.7686,3.7805,3.7859,3.7837,3.8038,3.7981,3.7988,3.7995,3.8061,3.8079,3.8095,3.7884,3.7883,3.7882,0,0,3.7158,3.7207,3.7298,3.7347,3.742,3.7448,3.7469,3.7541,3.7565,3.7673,3.7669,3.7739,3.7871,3.792,3.7963,3.8101,3.8093,3.8124,3.8187,3.8254,3.8269,3.8282,3.8331,3.8348,3.8136,3.8136,3.8136,0,3.7202,3.7323,3.7345,3.7433,3.7481,3.7477,3.7569,3.7616,3.7709,3.7742,3.7716,3.7882,3.7928,3.8058,3.8092,3.8126,3.8152,3.8116,3.8265,3.8279,3.8291,3.8338,3.8357,3.8139,3.8139,3.8138,3.8138,0,3.7374,3.7458,3.7523,3.7614,3.7669,3.7759,3.7793,3.7846,3.7853,3.7883,3.7993,3.8049,3.8134,3.8165,3.8172,3.8297,3.8281,3.826,3.8213,3.8312,3.8357,3.8375,3.8144,3.8143,3.8142,3.8141,0,0,3.7515,3.7617,3.7641,3.7682,3.7762,3.7827,3.7916,3.8,3.8045,3.8109,3.8184,3.8296,3.8277,3.8325,3.8337,3.8396,3.8501,3.8368,3.837,3.839,3.8641,3.8657,3.8677,3.8496,3.85,3.8503,3.8635,0,3.7643,3.7801,3.7823,3.7963,3.804,3.8038,3.8115,3.8172,3.8202,3.8272,3.8304,3.8383,3.8353,3.8382,3.8439,3.8476,3.8552,3.8467,3.8565,3.8569,3.8548,3.87,3.8717,3.884,3.8653,3.8656,3.8658,0,3.7813,3.7883,3.803,3.81,3.8133,3.8203,3.8281,3.8348,3.8412,3.843,3.8484,3.8489,3.858,3.8529,3.8654,3.8596,3.8637,3.8662,3.8667,3.8677,3.8619,3.8715,3.8879,3.8898,3.8686,3.8683,3.8681,0,3.7901,3.8032,3.8137,3.8172,3.8256,3.8305,3.8342,3.8403,3.8452,3.852,3.8552,3.863,3.8672,3.8732,3.8757,3.8718,3.8881,3.8833,3.8898,3.8897,3.8932,3.893,3.9106,3.8959,3.8959,3.8958,3.8958,0,3.8041,3.8132,3.8178,3.8242,3.8343,3.8367,3.8466,3.8501,3.8556,3.8627,3.8629,3.8695,3.8725,3.8795,3.8816,3.8916,3.8935,3.8952,3.8956,3.8952,3.895,3.8979,3.8971,3.8963,3.8962,3.8961,3.896,0,3.8157,3.8191,3.8306,3.8376,3.8396,3.8467,3.8527,3.8589,3.8618,3.8708,3.873,3.8776,3.8859,3.8891,3.8992,3.9005,3.9122,3.9119,3.91,3.9101,3.9165,3.9158,3.9366,3.9395,3.9229,3.923,3.9232,0,3.8244,3.8313,3.8391,3.8439,3.8478,3.8556,3.8606,3.8632,3.8684,3.8762,3.8815,3.8898,3.8966,3.9099,3.914,3.9218,3.9217,3.9284,3.9229,3.9222,3.9218,3.9214,3.922,3.9295,3.9296,3.9298,3.9299,0,3.8395,3.8409,3.8481,3.856,3.862,3.8683,3.8745,3.8783,3.8819,3.8877,3.8962,3.9015,3.9119,3.9201,3.928,3.9317,3.9314,3.9316,3.9335,3.9332,3.9318,3.9326,3.9128,3.9311,3.931,3.9309,3.9309,3.9308,3.8499,3.8561,3.8625,3.8706,3.8755,3.8812,3.8874,3.8911,3.8984,3.9071,3.9081,3.9173,3.9235,3.9341,3.9382,3.9453,3.9435,3.9463,3.947,3.9477,3.9481,3.9307,3.9468,3.9468,3.9467,3.9467,3.9467,0,3.865,3.8691,3.8766,3.8852,3.8915,3.8907,3.8974,3.9028,3.9109,3.9167,3.9234,3.9332,3.9412,3.946,3.954,3.9588,3.9588,3.9608,3.9605,3.9613,3.9493,3.9468,3.9606,3.9606,3.9606,3.9606,3.9606,3.9606,3.8736,3.884,3.8861,3.8989,3.903,3.912,3.9159,3.9212,3.9259,3.9368,3.9435,3.9466,3.9521,3.9604,3.9677,3.9689,3.9718,3.9739,3.975,3.9636,3.9622,3.9608,3.9585,3.9745,3.9746,3.9864,3.9865,3.9866]}]]